STARLINK-34081, 64044

Orbit data source: Space-Track

STARLINK-34081, 64044 is a payload satellite owned by SpaceX/Seattle (US) in LEO that was launched on Fri, 16 May 2025 UTC via an FALCON 9 launch vehicle from the Air Force Western Test Range (AFWTR). Payload-class satellites include a variety of spacecraft equipped with specific instruments for various scientific and technological missions. These include communications satellites like Starlink; space stations such as the ISS; scientific satellites like the Hubble; Earth observation satellites from companies like Planet Labs, Umbra, and HawkEye 360; GPS; miniature CubeSats for education and research; and military/defense satellites.

Loading next visibility...
Identifier
64044, 2025-102Y
Orbit
LEO
Country
Flag of USUS
Related business
Manufacturer
SpaceX/Seattle
Mission
Operational Commercial Communications
Bus & Motor
STARLINK V2MO, Unknown motor
Mass
575 kg wet, ~530 kg dry
Launch date (UTC)
2025-05-16 (1 year ago)
Launch vehicle
FALCON 9
Launch site
Air Force Western Test Range (AFWTR)
Object type
Payload
Rocket body
Debris
Shape & HBR
Box + 2 Pan, 17.7 m
Radar Cross Section
36.964 m², Large (>1 m²)

Expand to show TLE details & history
Last TLE update: 11 hours ago

TLE from 11 hours ago
0 STARLINK-34081
1 64044U 25102Y   26171.39705929  .00003418  00000-0  29406-3 0  9999
2 64044  69.9997 215.6149 0003667 267.5868  92.4872 14.98337244 61274
Epoch: 2026-06-20T09:31Z
TLE epoch observation values (Epoch: 2026-06-20T09:31:45.922Z)
Latitude
0.00003°
Longitude
164.0613°
Altitude
574.569 km
Speed
7.574 km/s
True Right ascension
14h 22m 27s
True Declination
0° 00' 00"
Sunlit
Object was in full shadow at epoch
Visualization orbit readout
Latitude
Unknown
Longitude
Unknown
Altitude
Unknown
Speed
Unknown
Apparent Right ascension
Unknown
Apparent Declination
Unknown
Sunlit
N/A
Visualization observer readout
Local Sidereal Time
07:11:48
Azimuth
Unknown
Elevation
Unknown
Doppler factor
Unknown
Orbital elements
Apogee altitude
572.53 km
Perigee altitude
567.434 km
Semi-major axis
6,948.119 km
Eccentricity
0.00037
Inclination
69.9997°
RAAN
215.6149°
Arg. of periapsis
267.5868°
True anomaly
92.52918°
Mean anomaly
92.4872°
Eccentric anomaly
92.50819°
Mean motion
3.74751 °/min
Orbital period
96.06 mins
BSTAR
0.00029406
Loading maneuver chart data...
Computing Atmospheric mass density...
Loading historical data...
Loading historical data...
Loading historical data...
Loading historical data...
Loading historical data...
Loading historical data...
Loading historical data...

Documentation

Showing up to 5 results
|